Simultaneous Nadir Overpasses (SNOs) Predictions

Prediction of SNOs between NOAA-20 and METOP-B Satellite Orbit:

Table of predicted SNOs for the next 14.0 days since TLE Epoch: 12/10/2022
Index Date (NOAA-20) Time (NOAA-20) Lat,Lon (NOAA-20) SZA (NOAA-20 ) Date (METOP-B) Time (METOP-B) Lat,Lon (METOP-B) SZA (METOP-B ) Distance(km) Time Diff (sec)
1 12/21/2022 14:03:37 73.47, -40.68 97.02 12/21/2022 14:04:43 73.42, -37.84 96.85 90.45 66
2 12/21/2022 14:54:19 -73.37, 126.87 83.10 12/21/2022 14:55:27 -73.31, 129.25 83.25 76.12 68
3 12/21/2022 15:45:01 73.17, -65.39 96.70 12/21/2022 15:46:11 73.10, -63.89 96.55 49.26 70
4 12/21/2022 16:35:43 -73.07, 102.15 83.42 12/21/2022 16:36:54 -73.04, 103.31 83.51 37.87 71
5 12/21/2022 17:26:25 72.87, -90.12 96.37 12/21/2022 17:27:38 72.82, -89.81 96.30 11.61 73
6 12/21/2022 18:17:07 -72.77, 77.41 83.74 12/21/2022 18:18:21 -72.77, 77.40 83.76 0.74 74
7 12/21/2022 19:07:53 72.77,-115.28 96.27 12/21/2022 19:09:01 72.75,-115.29 96.23 2.43 68
8 12/21/2022 19:58:37 -72.77, 52.03 83.74 12/21/2022 19:59:43 -72.75, 52.02 83.78 3.09 66
9 12/21/2022 20:49:23 72.78,-140.66 96.27 12/21/2022 20:50:22 72.78,-140.57 96.26 3.22 59
10 12/21/2022 21:40:07 -72.78, 26.65 83.74 12/21/2022 21:41:04 -72.78, 26.74 83.75 2.92 57
11 12/21/2022 22:30:53 72.78,-166.04 96.27 12/21/2022 22:31:44 72.76,-165.95 96.25 3.52 51
12 12/21/2022 23:21:36 -72.73, 1.38 83.79 12/21/2022 23:22:26 -72.76, 1.36 83.77 3.33 50
13 12/22/2022 00:12:22 72.73, 168.68 96.22 12/22/2022 00:13:06 72.74, 168.67 96.23 1.51 44
14 12/22/2022 01:03:06 -72.73, -24.00 83.79 12/22/2022 01:03:48 -72.74, -24.02 83.78 1.03 42
15 12/22/2022 01:53:52 72.73, 143.30 96.22 12/22/2022 01:54:28 72.72, 143.29 96.21 1.15 36
16 12/22/2022 02:44:36 -72.73, -49.38 83.78 12/22/2022 02:45:10 -72.72, -49.40 83.80 1.78 34
17 12/22/2022 03:35:22 72.74, 117.92 96.23 12/22/2022 03:35:50 72.70, 117.91 96.19 3.56 28
18 12/22/2022 04:26:06 -72.73, -74.76 83.78 12/22/2022 04:26:31 -72.75, -74.68 83.77 3.13 25
19 12/22/2022 05:16:52 72.74, 92.54 96.23 12/22/2022 05:17:11 72.73, 92.63 96.22 2.90 19
20 12/22/2022 06:07:36 -72.74,-100.14 83.78 12/22/2022 06:07:53 -72.73,-100.06 83.79 2.86 17
21 12/22/2022 06:58:21 72.69, 67.27 96.18 12/22/2022 06:58:33 72.71, 67.25 96.20 2.88 12
22 12/22/2022 07:49:05 -72.69,-125.41 83.83 12/22/2022 07:49:15 -72.71,-125.44 83.81 2.35 10
23 12/22/2022 08:39:51 72.69, 41.89 96.18 12/22/2022 08:39:55 72.69, 41.87 96.18 0.75 4
24 12/22/2022 09:30:35 -72.69,-150.79 83.83 12/22/2022 09:30:37 -72.69,-150.82 83.83 0.88 2
25 12/22/2022 10:21:21 72.69, 16.51 96.18 12/22/2022 10:21:17 72.67, 16.49 96.16 2.29 4
26 12/22/2022 11:12:04 -72.69,-176.17 83.82 12/22/2022 11:11:58 -72.67,-176.20 83.85 2.87 6
27 12/22/2022 12:02:50 72.70, -8.87 96.19 12/22/2022 12:02:37 72.71, -8.79 96.19 2.87 13
28 12/22/2022 12:53:34 -72.70, 158.45 83.82 12/22/2022 12:53:19 -72.70, 158.52 83.82 2.57 15
29 12/22/2022 13:44:20 72.70, -34.25 96.19 12/22/2022 13:43:59 72.69, -34.17 96.17 3.04 21
30 12/22/2022 14:35:04 -72.70, 133.07 83.82 12/22/2022 14:34:41 -72.68, 133.14 83.84 3.22 23
31 12/22/2022 15:25:49 72.65, -59.52 96.14 12/22/2022 15:25:21 72.67, -59.55 96.16 1.87 28
32 12/22/2022 16:16:33 -72.65, 107.79 83.87 12/22/2022 16:16:03 -72.66, 107.76 83.85 1.49 30
33 12/22/2022 17:07:19 72.65, -84.90 96.14 12/22/2022 17:06:43 72.65, -84.93 96.14 1.22 36
34 12/22/2022 17:58:03 -72.65, 82.41 83.87 12/22/2022 17:57:25 -72.64, 82.38 83.87 1.70 38
35 12/22/2022 18:48:49 72.66,-110.28 96.14 12/22/2022 18:48:04 72.68,-110.21 96.17 3.44 45
36 12/22/2022 19:39:33 -72.65, 57.03 83.87 12/22/2022 19:38:46 -72.67, 57.11 83.84 2.99 47
37 12/22/2022 20:30:19 72.66,-135.66 96.14 12/22/2022 20:29:26 72.66,-135.59 96.15 2.49 53
38 12/22/2022 21:21:03 -72.66, 31.65 83.86 12/22/2022 21:20:08 -72.65, 31.73 83.86 2.45 55
39 12/22/2022 22:11:48 72.61,-160.94 96.09 12/22/2022 22:10:48 72.64,-160.97 96.13 3.16 60
40 12/22/2022 23:02:32 -72.61, 6.38 83.91 12/22/2022 23:01:30 -72.63, 6.35 83.88 2.72 62
41 12/22/2022 23:53:18 72.61, 173.68 96.09 12/22/2022 23:52:10 72.62, 173.65 96.11 1.16 68
42 12/23/2022 00:44:02 -72.61, -19.00 83.91 12/23/2022 00:42:52 -72.61, -19.04 83.90 1.15 70
43 12/23/2022 01:34:47 72.56, 148.41 96.04 12/23/2022 01:33:33 72.55, 148.17 96.04 8.23 74
44 12/23/2022 02:25:30 -72.51, -44.17 84.02 12/23/2022 02:24:16 -72.49, -44.62 84.01 15.13 74
45 12/23/2022 03:16:11 72.26, 123.64 95.72 12/23/2022 03:15:00 72.27, 122.28 95.79 45.98 71
46 12/23/2022 04:06:54 -72.21, -68.95 84.34 12/23/2022 04:05:43 -72.21, -70.50 84.26 52.76 71
47 12/23/2022 04:57:35 71.95, 98.85 95.39 12/23/2022 04:56:28 71.94, 96.31 95.49 87.45 67
48 12/23/2022 05:48:17 -71.85, -93.65 84.72 12/23/2022 05:47:11 -71.89, -96.46 84.56 97.57 66



Historial Predications of SNOs between NOAA-20 and METOP-B
